Location: Newark
(17.1458°N, 89.0741°W)
Time: 09:01:14
(UTC+00:00)

OTV 5 (USA 277) - Pass Details

Date: 28 July 2019
Orbit: 305 x 329 km, 54.5° (Epoch: 20 August)

Event Time Altitude Azimuth Distance (km) Brightness Sun altitude
Exits shadow 10:22:56 12° 160° (SSE) 1,094 ? -16.6°
Maximum altitude 10:24:24 17° 122° (ESE) 884 ? -16.3°
Drops below altitude 10° 10:26:12 10° 78° (ENE) 1,180 ? -15.9°
Sets 10:28:33 0° 56° (ENE) 2,004 ? -15.4°
